Weather History for EGNC - March, 2013

Change the Weather History Date:

Saturday, March 23, 2013

  Actual Average (WUND) Record (WUND)
Temperature  
Mean Temperature 32 °F -  
Max Temperature 33 °F 52 °F - (-1)
Min Temperature 32 °F 43 °F - (-1)
Degree Days  
Heating Degree Days 32    
Moisture  
Dew Point 27 °F    
Average Humidity 77    
Maximum Humidity 87    
Minimum Humidity 70    
Precipitation  
Precipitation 0.00 in - - ()
Sea Level Pressure  
Sea Level Pressure 30.03 in    
Wind  
Wind Speed 14 mph ()    
Max Wind Speed 23 mph    
Max Gust Speed 40 mph    
Visibility 6.2 miles    
Events Snow    
Averages and records for this station are not official NWS values.
T = Trace of Precipitation, MM = Missing Value Source: Averaged Metar Reports

Daily Weather History Graph

Daily Weather History Graph

Search for Another Location

Airport or City:

Trip Planner

Search our weather history database for the weather conditions in past years. The results will help you decide how hot, cold, wet, or windy it might be!

Date:

Astronomy

Mar. 23, 2013 Rise Set
Actual Time 6:05 AM GMT 6:30 PM GMT
Civil Twilight 5:29 AM GMT 7:07 PM GMT
Nautical Twilight 4:46 AM GMT 7:50 PM GMT
Astronomical Twilight 4:00 AM GMT 8:37 PM GMT
Moon 2:10 PM GMT (3/23) 4:08 AM GMT (3/23)
Length of Visible Light 13h 37m
Length of Day
12h 25m
Waxing Gibbous, 83% of the Moon is Illuminated
Mar 23
Waxing Gibbous
Mar 27
Full
Apr 3
Last Quarter
Apr 10
New
Apr 18
First Quarter

Hourly Weather History & Observations

Time (GMT) Temp. Windchill Dew Point Humidity Pressure Visibility Wind Dir Wind Speed Gust Speed Precip Events Conditions
8:50 AM 32.0 °F 19.2 °F 28.4 °F 87% 29.98 in 6.2 mi East 23.0 mph 35.7 mph N/A   Overcast
9:20 AM 33.8 °F 21.6 °F 28.4 °F 81% 29.98 in 6.2 mi East 23.0 mph 35.7 mph N/A   Overcast
9:50 AM 33.8 °F 25.3 °F 28.4 °F 81% 30.01 in 6.2 mi East 11.5 mph 24.2 mph N/A   Overcast
10:20 AM 33.8 °F 24.3 °F 28.4 °F 81% 30.01 in 6.2 mi East 13.8 mph 31.1 mph N/A   Overcast
10:50 AM 33.8 °F 23.9 °F 28.4 °F 81% 30.04 in 6.2 mi East 15.0 mph 29.9 mph N/A Snow Light Snow
11:20 AM 33.8 °F 25.3 °F 28.4 °F 81% 30.04 in 6.2 mi ESE 11.5 mph 29.9 mph N/A   Mostly Cloudy
11:50 AM 33.8 °F 25.3 °F 26.6 °F 75% 30.04 in 6.2 mi ESE 11.5 mph 29.9 mph N/A   Mostly Cloudy
12:20 PM 33.8 °F 22.8 °F 26.6 °F 75% 30.04 in 6.2 mi East 18.4 mph 31.1 mph N/A   Mostly Cloudy
12:50 PM 33.8 °F 23.2 °F 26.6 °F 75% 30.04 in 6.2 mi East 17.3 mph 31.1 mph N/A   Mostly Cloudy
1:20 PM 33.8 °F 23.5 °F 26.6 °F 75% 30.04 in 6.2 mi East 16.1 mph 31.1 mph N/A   Mostly Cloudy
1:50 PM 33.8 °F 22.2 °F 26.6 °F 75% 30.04 in 6.2 mi East 20.7 mph 39.1 mph N/A   Mostly Cloudy
2:20 PM 33.8 °F 23.2 °F 26.6 °F 75% 30.04 in 6.2 mi ESE 17.3 mph 33.4 mph N/A   Scattered Clouds
2:50 PM 33.8 °F 27.7 °F 26.6 °F 75% 30.04 in 6.2 mi ESE 6.9 mph - N/A   Mostly Cloudy
3:20 PM 33.8 °F 22.5 °F 26.6 °F 75% 30.04 in 6.2 mi East 19.6 mph 40.3 mph N/A   Mostly Cloudy
3:50 PM 33.8 °F 23.5 °F 26.6 °F 75% 30.04 in 6.2 mi East 16.1 mph 33.4 mph N/A   Mostly Cloudy
4:20 PM 33.8 °F - 26.6 °F 75% 30.04 in 6.2 mi SE 2.3 mph - N/A   Mostly Cloudy
4:50 PM 33.8 °F 28.6 °F 26.6 °F 75% 30.04 in 6.2 mi SE 5.8 mph 25.3 mph N/A   Mostly Cloudy
5:20 PM 33.8 °F 25.3 °F 24.8 °F 70% 30.06 in 6.2 mi NE 11.5 mph 25.3 mph N/A   Mostly Cloudy
5:50 PM 33.8 °F 28.6 °F 26.6 °F 75% 30.06 in 6.2 mi ESE 5.8 mph - N/A   Mostly Cloudy